Location: Baili�vre
(50.0696°N, 4.2409°E)
Time: 05:36:08
(UTC+00:00)

Cosmos 2360 Rocket - Pass Details

Date: 08 August 2020
Orbit: 833 x 845 km, 71.0° (Epoch: 19 September)

Event Time Altitude Azimuth Distance (km) Brightness Sun altitude
Rises 20:26:20 0° 332° (NNW) 3,417 6.8 -10.6°
Reaches altitude 10° 20:29:41 10° 352° (N) 2,479 5.4 -11.0°
Maximum altitude 20:33:26 18° 34° (NNE) 1,985 4.2 -11.4°
Drops below altitude 10° 20:37:11 10° 75° (ENE) 2,470 4.3 -11.9°
Enters shadow 20:38:58 - 87° (E) 2,945 4.6 -12.1°
